TimeCDT,TemperatureF,Dew PointF,Humidity,Sea Level PressureIn,VisibilityMPH,Wind Direction,Wind SpeedMPH,Gust SpeedMPH,PrecipitationIn,Events,Conditions,WindDirDegrees,DateUTC
12:53 AM,46.0,39.9,79,30.14,10.0,WNW,4.6,-,N/A,,Clear,290,2011-11-04 05:53:00
1:53 AM,43.0,39.9,89,30.15,10.0,West,3.5,-,N/A,,Clear,260,2011-11-04 06:53:00
2:53 AM,43.0,37.9,82,30.14,10.0,West,4.6,-,N/A,,Clear,280,2011-11-04 07:53:00
3:53 AM,42.1,37.0,82,30.14,10.0,WNW,4.6,-,N/A,,Clear,290,2011-11-04 08:53:00
4:53 AM,42.1,37.0,82,30.14,10.0,NW,3.5,-,N/A,,Clear,310,2011-11-04 09:53:00
5:53 AM,39.0,37.0,93,30.15,10.0,Calm,Calm,-,N/A,,Clear,0,2011-11-04 10:53:00
6:53 AM,37.9,36.0,93,30.16,10.0,Calm,Calm,-,N/A,,Clear,0,2011-11-04 11:53:00
7:53 AM,41.0,37.0,86,30.17,10.0,West,4.6,-,N/A,,Clear,270,2011-11-04 12:53:00
8:53 AM,46.9,39.0,74,30.19,10.0,NW,6.9,-,N/A,,Clear,310,2011-11-04 13:53:00
9:53 AM,52.0,39.9,63,30.20,10.0,Variable,5.8,-,N/A,,Clear,0,2011-11-04 14:53:00
10:53 AM,55.0,41.0,59,30.19,10.0,NNE,6.9,-,N/A,,Clear,30,2011-11-04 15:53:00
11:53 AM,57.9,42.1,56,30.18,10.0,North,8.1,-,N/A,,Clear,360,2011-11-04 16:53:00
12:53 PM,61.0,43.0,52,30.15,10.0,Variable,4.6,-,N/A,,Clear,0,2011-11-04 17:53:00
1:53 PM,63.0,43.0,48,30.12,10.0,NNW,5.8,16.1,N/A,,Clear,340,2011-11-04 18:53:00
2:53 PM,64.9,44.1,47,30.09,10.0,Calm,Calm,-,N/A,,Clear,0,2011-11-04 19:53:00
3:53 PM,66.0,44.1,45,30.09,10.0,Variable,6.9,-,N/A,,Clear,0,2011-11-04 20:53:00
4:53 PM,66.0,44.1,45,30.09,10.0,NW,4.6,-,N/A,,Clear,310,2011-11-04 21:53:00
5:53 PM,64.0,44.1,48,30.09,10.0,Calm,Calm,-,N/A,,Clear,0,2011-11-04 22:53:00
6:53 PM,55.0,46.9,74,30.11,10.0,Calm,Calm,-,N/A,,Clear,0,2011-11-04 23:53:00
7:53 PM,53.1,46.9,80,30.12,10.0,Calm,Calm,-,N/A,,Clear,0,2011-11-05 00:53:00
8:53 PM,52.0,46.9,83,30.14,10.0,Calm,Calm,-,N/A,,Clear,0,2011-11-05 01:53:00
9:53 PM,48.9,46.0,90,30.16,10.0,Calm,Calm,-,N/A,,Clear,0,2011-11-05 02:53:00
10:53 PM,50.0,46.0,86,30.16,10.0,NE,4.6,-,N/A,,Clear,40,2011-11-05 03:53:00
11:53 PM,48.0,45.0,89,30.16,10.0,NE,4.6,-,N/A,,Clear,50,2011-11-05 04:53:00